[[{"header":{"parameterUnit":"m.s-1","parameterCategory":2,"la1":30.2991,"la2":30.254,"lo1":-89.0895,"lo2":-89.0444,"dy":0.0017,"dx":0.0017,"nx":28,"ny":28,"refTime":"2026-02-16T03:00:00:Z","depth":"0","parameterNumber":2,"parameterNumberName":"U-component_of_CURRENTS"},"data":[0,0,0,0,0,0,0,0,0,0,0,0,0,0,0,0,0,0,0,0,0,0,0,0,0,0,0,0,0,0,0,0,0,0,0,0,0,0,0,0,0,0,0,0,0,0,0,0,0,0,0,0,0,0,0,0,0,0,-0.2354,-0.2354,0,-0.2375,-0.2375,-0.2375,-0.2361,-0.2361,-0.2361,-0.236,-0.2313,-0.2312,-0.2311,0,0,0,0,0,0,0,0,0,0,0,0,0,-0.2313,-0.2313,-0.2354,-0.2354,-0.2355,-0.2375,-0.2375,-0.2375,-0.2362,-0.2361,-0.2361,-0.236,-0.2313,-0.2312,-0.2311,0,0,0,0,0,0,0,0,0,0,0,0,0,-0.2329,-0.2313,-0.2354,-0.2353,-0.2353,-0.2375,-0.2375,-0.2375,-0.2362,-0.2361,-0.2361,-0.236,-0.2313,-0.2312,-0.231,-0.2312,0,0,-0.2306,-0.2305,0,0,0,0,0,0,0,0,-0.2328,-0.233,-0.2353,-0.2353,-0.2354,-0.2368,-0.2343,-0.2352,-0.2362,-0.2355,-0.236,-0.236,-0.2327,-0.2324,-0.2326,-0.231,-0.2308,-0.2306,-0.2305,-0.2304,-0.2304,0,0,0,0,0,0,0,-0.2327,-0.2329,-0.2359,-0.2353,-0.2354,-0.2356,-0.2357,-0.2345,-0.234,-0.2356,-0.2356,-0.2363,-0.2326,-0.2328,-0.2325,-0.2307,-0.2306,-0.2305,-0.2304,-0.2303,-0.2322,-0.2323,0,0,0,0,0,0,-0.2331,-0.2328,-0.2358,-0.236,-0.2343,-0.2357,-0.2358,-0.2361,-0.2342,-0.234,-0.2364,-0.2362,-0.233,-0.2326,-0.2323,-0.2328,-0.2304,-0.2303,-0.2302,-0.2321,-0.2322,-0.2324,0,0,0,0,0,0,-0.233,-0.2333,-0.2358,-0.2347,-0.2351,-0.2359,-0.2362,-0.2362,-0.2362,-0.2349,-0.2345,-0.2364,-0.233,-0.2325,-0.2312,-0.2326,-0.2302,-0.2301,-0.2319,-0.2321,-0.2323,-0.2336,0,0,0,0,0,0,-0.2328,-0.2332,-0.2326,-0.2348,-0.2352,-0.2379,-0.2363,-0.2363,-0.237,-0.2368,-0.2348,-0.2343,-0.2329,-0.2315,-0.2311,-0.2324,-0.23,-0.2317,-0.232,-0.2323,-0.2334,-0.2338,-0.2342,0,0,0,0,0,-0.2327,-0.2332,-0.2325,-0.2329,-0.2346,-0.238,-0.2383,-0.2384,-0.237,-0.2379,-0.2358,-0.2344,-0.2329,-0.2314,-0.2309,-0.2322,-0.2316,-0.2319,-0.2322,-0.2332,-0.2337,-0.2342,0,0,0,0,0,0,-0.2301,-0.2332,-0.2325,-0.2334,-0.2357,-0.2379,-0.2387,-0.2386,-0.2378,-0.237,-0.2347,-0.2341,-0.2341,-0.2334,-0.2318,-0.234,-0.2326,-0.2329,-0.2335,-0.234,-0.2344,-0.2344,-0.2299,0,0,0,0,0,-0.2294,-0.2309,-0.2336,-0.2341,-0.2356,-0.2368,-0.2377,-0.2383,-0.2386,-0.2382,-0.237,-0.236,-0.2353,-0.2346,-0.2343,-0.2343,-0.2321,-0.2356,-0.236,-0.2364,-0.2364,-0.2323,-0.2322,-0.2334,-0.2334,-0.2334,0,0,-0.2284,-0.2303,-0.2309,-0.2337,-0.2352,-0.2382,-0.2372,-0.2397,-0.2413,-0.2377,-0.2385,-0.237,-0.2357,-0.2362,-0.2363,-0.2353,-0.2354,-0.2368,-0.237,-0.2369,-0.2326,-0.2324,-0.2322,-0.2336,-0.2336,-0.2335,0,0,-0.2294,-0.2293,-0.2318,-0.2342,-0.2376,-0.2388,-0.2397,-0.2424,-0.2427,-0.2436,-0.2414,-0.2399,-0.2401,-0.2386,-0.2379,-0.2404,-0.2377,-0.242,-0.2433,-0.2393,-0.239,-0.2388,-0.2373,-0.2369,-0.242,-0.242,-0.242,0,-0.2281,-0.2306,-0.2329,-0.2365,-0.2378,-0.2394,-0.242,-0.2437,-0.2452,-0.2443,-0.2444,-0.242,-0.241,-0.2392,-0.2412,-0.2409,-0.2393,-0.2409,-0.2394,-0.2391,-0.2388,-0.2373,-0.2368,-0.2421,-0.2421,-0.2421,-0.2421,0,-0.2319,-0.2333,-0.2353,-0.2398,-0.2419,-0.2444,-0.2475,-0.2488,-0.2487,-0.2487,-0.2474,-0.2455,-0.2433,-0.2441,-0.2436,-0.2421,-0.2419,-0.24,-0.2372,-0.2387,-0.2371,-0.2366,-0.2423,-0.2422,-0.2422,-0.2422,0,0,-0.2303,-0.2366,-0.2371,-0.238,-0.2432,-0.245,-0.2484,-0.2499,-0.2497,-0.2506,-0.2489,-0.2486,-0.2461,-0.2453,-0.2438,-0.2417,-0.2394,-0.2412,-0.2409,-0.2381,-0.2324,-0.2291,-0.2283,-0.2368,-0.2367,-0.2366,-0.2325,0,-0.2318,-0.2374,-0.2403,-0.2435,-0.2456,-0.2477,-0.2498,-0.2512,-0.2519,-0.2513,-0.2487,-0.2471,-0.2471,-0.2453,-0.2432,-0.2404,-0.238,-0.2409,-0.2328,-0.2326,-0.2281,-0.2275,-0.2203,-0.2158,-0.232,-0.2319,-0.2318,0,-0.2342,-0.2368,-0.241,-0.2428,-0.2439,-0.2462,-0.2471,-0.2492,-0.2495,-0.2494,-0.2473,-0.2461,-0.2436,-0.2432,-0.2376,-0.2395,-0.2366,-0.2344,-0.2341,-0.23,-0.2283,-0.2168,-0.2142,-0.2124,-0.231,-0.2311,-0.2311,0,-0.2311,-0.2362,-0.2384,-0.24,-0.2441,-0.2447,-0.2457,-0.2474,-0.2479,-0.2476,-0.2471,-0.2438,-0.2417,-0.2376,-0.2351,-0.2358,-0.2291,-0.2282,-0.2223,-0.2221,-0.2138,-0.2131,-0.2067,-0.2229,-0.2229,-0.223,-0.223,0,-0.2309,-0.2315,-0.2369,-0.2383,-0.2391,-0.2418,-0.2422,-0.2437,-0.2442,-0.2435,-0.2448,-0.243,-0.2402,-0.237,-0.2342,-0.227,-0.2272,-0.2222,-0.2199,-0.2145,-0.2139,-0.2103,-0.2122,-0.2228,-0.2228,-0.2229,-0.2229,0,-0.2265,-0.2311,-0.2336,-0.2378,-0.2386,-0.239,-0.241,-0.241,-0.242,-0.2415,-0.2412,-0.2414,-0.2375,-0.2351,-0.2286,-0.2247,-0.2149,-0.2159,-0.2115,-0.2088,-0.2012,-0.2035,-0.1956,-0.1898,-0.208,-0.2078,-0.2077,0,-0.2229,-0.2245,-0.2327,-0.2349,-0.2368,-0.2376,-0.2383,-0.2399,-0.24,-0.2397,-0.2388,-0.2366,-0.2338,-0.2251,-0.218,-0.211,-0.2098,-0.1999,-0.199,-0.1993,-0.2002,-0.2018,-0.1976,-0.1897,-0.1894,-0.1892,-0.1891,0,-0.2137,-0.2197,-0.2236,-0.23,-0.2327,-0.2343,-0.2348,-0.2345,-0.2353,-0.2342,-0.2313,-0.229,-0.2236,-0.2133,-0.2058,-0.1998,-0.1955,-0.1956,-0.195,-0.1847,-0.1866,-0.1804,-0.1969,-0.1873,-0.1875,-0.1876,-0.1877,-0.1878,-0.2054,-0.2081,-0.2159,-0.2203,-0.2257,-0.2267,-0.2225,-0.2235,-0.2202,-0.2137,-0.22,-0.2138,-0.209,-0.1972,-0.1909,-0.179,-0.1831,-0.1734,-0.1762,-0.1779,-0.1716,-0.1861,-0.1745,-0.1746,-0.1747,-0.1748,-0.1749,0,-0.1911,-0.1969,-0.203,-0.2089,-0.2116,-0.2168,-0.2158,-0.2082,-0.1996,-0.2008,-0.1961,-0.1953,-0.1847,-0.1807,-0.1706,-0.1623,-0.1571,-0.158,-0.158,-0.1544,-0.1649,-0.1632,-0.1497,-0.1497,-0.1497,-0.1497,-0.1497,-0.1497,-0.1836,-0.1858,-0.1911,-0.191,-0.195,-0.1901,-0.1866,-0.1781,-0.1749,-0.166,-0.1673,-0.1732,-0.1719,-0.1782,-0.1647,-0.1554,-0.1503,-0.1464,-0.1472,-0.1559,-0.1576,-0.1592,-0.1579,-0.1435,-0.1435,-0.1307,-0.1306,-0.1306]},{"header":{"parameterUnit":"m.s-1","parameterCategory":2,"la1":30.2991,"la2":30.254,"lo1":-89.0895,"lo2":-89.0444,"dy":0.0017,"dx":0.0017,"nx":28,"ny":28,"refTime":"2026-02-16T03:00:00:Z","depth":"0","parameterNumber":3,"parameterNumberName":"V-component_of_CURRENTS"},"data":[0,0,0,0,0,0,0,0,0,0,0,0,0,0,0,0,0,0,0,0,0,0,0,0,0,0,0,0,0,0,0,0,0,0,0,0,0,0,0,0,0,0,0,0,0,0,0,0,0,0,0,0,0,0,0,0,0,0,0.0173,0.0173,0,0.0206,0.0206,0.0206,0.0188,0.0187,0.0186,0.0185,0.0285,0.0288,0.0291,0,0,0,0,0,0,0,0,0,0,0,0,0,0.015,0.015,0.0172,0.0173,0.0173,0.0206,0.0206,0.0206,0.0188,0.0187,0.0186,0.0185,0.0284,0.0288,0.0292,0,0,0,0,0,0,0,0,0,0,0,0,0,0.0168,0.015,0.0172,0.0169,0.0169,0.0206,0.0206,0.0207,0.0188,0.0187,0.0186,0.0184,0.0282,0.0287,0.0292,0.0349,0,0,0.0308,0.031,0,0,0,0,0,0,0,0,0.0167,0.0169,0.0169,0.0169,0.0169,0.0192,0.0235,0.0258,0.0188,0.018,0.0185,0.0184,0.0262,0.0268,0.0275,0.0354,0.0358,0.0309,0.0312,0.0314,0.0315,0,0,0,0,0,0,0,0.0165,0.0167,0.0185,0.0169,0.017,0.0185,0.0186,0.0239,0.0228,0.0181,0.0179,0.0185,0.0262,0.027,0.0277,0.036,0.0308,0.0313,0.0316,0.0318,0.0459,0.046,0,0,0,0,0,0,0.0162,0.0166,0.0184,0.0186,0.0166,0.0186,0.0187,0.0185,0.0226,0.023,0.0186,0.0184,0.0262,0.0271,0.0281,0.028,0.0314,0.0319,0.0322,0.0458,0.0459,0.046,0,0,0,0,0,0,0.0161,0.0163,0.0182,0.0178,0.0181,0.0188,0.0186,0.0187,0.019,0.0229,0.0235,0.0188,0.0261,0.0274,0.0292,0.0286,0.0321,0.0326,0.0458,0.0459,0.046,0.0324,0,0,0,0,0,0,0.016,0.0162,0.0161,0.0177,0.0182,0.0183,0.0188,0.0188,0.0196,0.0193,0.0234,0.0241,0.0261,0.0283,0.0297,0.0294,0.033,0.0457,0.0458,0.0459,0.0327,0.032,0.0313,0,0,0,0,0,0.0159,0.0147,0.016,0.0163,0.0179,0.0182,0.0185,0.0186,0.0197,0.0187,0.0203,0.024,0.0302,0.0287,0.0303,0.0301,0.0456,0.0458,0.0459,0.033,0.0321,0.0314,0,0,0,0,0,0,0.0159,0.0146,0.0159,0.0152,0.0163,0.0179,0.0171,0.019,0.0198,0.0193,0.0236,0.0244,0.0259,0.0312,0.0295,0.0352,0.0393,0.0397,0.029,0.0282,0.0275,0.0273,0.0334,0,0,0,0,0,0.0158,0.0127,0.0145,0.0142,0.0141,0.0164,0.017,0.0173,0.0185,0.0186,0.0219,0.0259,0.0283,0.0303,0.0337,0.037,0.0419,0.0389,0.0382,0.0375,0.0388,0.0425,0.0421,0.0465,0.0465,0.0465,0,0,0.0157,0.0149,0.0134,0.0137,0.0143,0.0128,0.0162,0.0158,0.0151,0.0201,0.0201,0.0233,0.0286,0.0297,0.0314,0.0337,0.039,0.0377,0.037,0.0388,0.0426,0.0421,0.0417,0.0466,0.0466,0.0465,0,0,0.012,0.0134,0.0086,0.0087,0.0088,0.0103,0.0103,0.0121,0.0128,0.014,0.0165,0.0188,0.0248,0.0265,0.0287,0.028,0.0346,0.0308,0.0273,0.0306,0.0302,0.0299,0.0346,0.0349,0.031,0.0309,0.0309,0,0.0126,0.0074,0.0081,0.0044,0.0041,0.0088,0.0056,0.0074,0.0099,0.0112,0.0123,0.0194,0.023,0.0244,0.023,0.0261,0.0299,0.0283,0.0292,0.029,0.029,0.0339,0.0343,0.0303,0.0304,0.0304,0.0305,0,0.0045,0.0016,-0.0007,-0.0046,-0.0043,-0.0061,-0.0034,-0.002,0.0012,0.0038,0.0066,0.0108,0.0153,0.017,0.0193,0.0213,0.0247,0.0265,0.0298,0.0276,0.0331,0.0338,0.0294,0.0296,0.0298,0.03,0,0,0.0038,-0.0053,-0.0057,-0.0091,-0.0093,-0.0099,-0.0101,-0.0086,-0.0081,-0.0037,-0.0025,0.0016,0.006,0.0091,0.0131,0.0165,0.0178,0.021,0.0214,0.0231,0.0263,0.0296,0.0308,0.0187,0.0188,0.0188,0.0299,0,-0.002,-0.0126,-0.0143,-0.0205,-0.0246,-0.0207,-0.0212,-0.0185,-0.0145,-0.0116,-0.005,-0.0025,0.0024,0.0038,0.0077,0.0154,0.0193,0.0148,0.0308,0.0313,0.0322,0.0315,0.035,0.0452,0.0306,0.0307,0.0308,0,-0.0082,-0.015,-0.0243,-0.0296,-0.0307,-0.0325,-0.031,-0.0308,-0.0249,-0.0217,-0.0166,-0.0106,-0.0045,-0.0004,0.0121,0.0088,0.0172,0.0236,0.0242,0.033,0.0359,0.0458,0.0471,0.0612,0.0319,0.0319,0.0318,0,-0.0099,-0.0201,-0.0282,-0.0302,-0.0356,-0.0369,-0.0374,-0.0334,-0.0331,-0.0271,-0.0255,-0.0169,-0.0122,-0.0016,0.0126,0.0121,0.0272,0.0281,0.0395,0.0399,0.0494,0.0505,0.0644,0.0374,0.0374,0.0373,0.0373,0,-0.0139,-0.0192,-0.0303,-0.0341,-0.0406,-0.0417,-0.0446,-0.0426,-0.0405,-0.0402,-0.0308,-0.028,-0.0123,-0.0014,0.011,0.0279,0.0263,0.0399,0.0429,0.0449,0.0454,0.0635,0.0687,0.0377,0.0377,0.0376,0.0375,0,-0.0122,-0.0205,-0.0291,-0.0386,-0.0417,-0.0448,-0.0498,-0.0515,-0.0487,-0.0478,-0.0463,-0.0353,-0.0206,-0.0037,0.0149,0.0261,0.0505,0.0478,0.0498,0.0528,0.0752,0.0794,0.0985,0.1062,0.0618,0.0619,0.0621,0,-0.0125,-0.0183,-0.0314,-0.0368,-0.041,-0.0474,-0.052,-0.0541,-0.056,-0.0521,-0.0519,-0.0383,-0.0272,0.0021,0.0246,0.0482,0.0587,0.0646,0.0642,0.078,0.085,0.088,0.0933,0.072,0.0722,0.0723,0.0725,0,-0.0117,-0.0166,-0.0242,-0.0364,-0.0439,-0.0528,-0.0594,-0.0633,-0.065,-0.0647,-0.0604,-0.0514,-0.0208,0.0075,0.039,0.0533,0.0749,0.0685,0.0827,0.0946,0.0992,0.1074,0.0638,0.0739,0.0737,0.0736,0.0736,0.0735,-0.009,-0.0144,-0.0259,-0.0363,-0.0454,-0.0568,-0.0642,-0.071,-0.0765,-0.0765,-0.066,-0.0509,-0.0068,0.0384,0.055,0.0922,0.0885,0.1035,0.1078,0.1098,0.1167,0.0763,0.089,0.0889,0.0889,0.0888,0.0888,0,-0.0075,-0.0166,-0.026,-0.0403,-0.0503,-0.056,-0.0689,-0.0768,-0.0849,-0.0781,-0.0717,-0.0259,0.0172,0.0581,0.1107,0.1305,0.1349,0.1405,0.1468,0.1504,0.116,0.1158,0.135,0.135,0.135,0.1349,0.1349,0.1349,-0.008,-0.0179,-0.0253,-0.0428,-0.0527,-0.068,-0.0767,-0.0865,-0.0855,-0.0741,-0.0513,-0.0301,0.0322,0.1155,0.1637,0.1682,0.1838,0.1829,0.1907,0.168,0.1649,0.1619,0.1632,0.192,0.192,0.2248,0.2251,0.2253]}],[{"header":{"parameterUnit":"m.s-1","parameterCategory":2,"la1":30.2991,"la2":30.254,"lo1":-89.0895,"lo2":-89.0444,"dy":0.0017,"dx":0.0017,"nx":28,"ny":28,"refTime":"2026-02-16T03:00:00:Z","depth":"2","parameterNumber":2,"parameterNumberName":"U-component_of_CURRENTS"},"data":[0,0,0,0,0,0,0,0,0,0,0,0,0,0,0,0,0,0,0,0,0,0,0,0,0,0,0,0,0,0,0,0,0,0,0,0,0,0,0,0,0,0,0,0,0,0,0,0,0,0,0,0,0,0,0,0,0,0,-0.1834,-0.1834,0,-0.186,-0.186,-0.1859,-0.1864,-0.1864,-0.1864,-0.1865,-0.1892,-0.1892,-0.1893,0,0,0,0,0,0,0,0,0,0,0,0,0,-0.1792,-0.1793,-0.1834,-0.1834,-0.1835,-0.186,-0.186,-0.1859,-0.1864,-0.1864,-0.1864,-0.1865,-0.1892,-0.1892,-0.1893,0,0,0,0,0,0,0,0,0,0,0,0,0,-0.1809,-0.1793,-0.1833,-0.1844,-0.1846,-0.186,-0.186,-0.1859,-0.1864,-0.1864,-0.1865,-0.1865,-0.1891,-0.1892,-0.1893,-0.189,0,0,-0.1895,-0.1895,0,0,0,0,0,0,0,0,-0.1808,-0.181,-0.1842,-0.1843,-0.1845,-0.1863,-0.1855,-0.1872,-0.1864,-0.1852,-0.1865,-0.1865,-0.1885,-0.1887,-0.1884,-0.1892,-0.1893,-0.1895,-0.1896,-0.1896,-0.1896,0,0,0,0,0,0,0,-0.1807,-0.1809,-0.1839,-0.1843,-0.1845,-0.1849,-0.1851,-0.1858,-0.1862,-0.1853,-0.1854,-0.1865,-0.1886,-0.1883,-0.1884,-0.1893,-0.1895,-0.1896,-0.1896,-0.1897,-0.1956,-0.1957,0,0,0,0,0,0,-0.1813,-0.1807,-0.1838,-0.184,-0.1833,-0.185,-0.1852,-0.1853,-0.1862,-0.1866,-0.1865,-0.1865,-0.1881,-0.1883,-0.1885,-0.1926,-0.1896,-0.1897,-0.1897,-0.1955,-0.1956,-0.1957,0,0,0,0,0,0,-0.1812,-0.1815,-0.1837,-0.1829,-0.1833,-0.1851,-0.1851,-0.1853,-0.1864,-0.1872,-0.1875,-0.1876,-0.1882,-0.1884,-0.1911,-0.1926,-0.1897,-0.1898,-0.1953,-0.1955,-0.1957,-0.198,0,0,0,0,0,0,-0.181,-0.1814,-0.1818,-0.1829,-0.1834,-0.1861,-0.1852,-0.1854,-0.1872,-0.1873,-0.1883,-0.1885,-0.1882,-0.191,-0.1912,-0.1926,-0.1898,-0.1952,-0.1954,-0.1956,-0.1978,-0.1982,-0.1986,0,0,0,0,0,-0.1808,-0.1819,-0.1818,-0.1822,-0.1838,-0.1863,-0.1865,-0.1876,-0.1873,-0.1884,-0.1893,-0.1885,-0.1924,-0.1912,-0.1913,-0.1928,-0.1951,-0.1954,-0.1956,-0.1976,-0.1982,-0.1986,0,0,0,0,0,0,-0.1799,-0.1821,-0.182,-0.1835,-0.1854,-0.1866,-0.1876,-0.1883,-0.1897,-0.1895,-0.1898,-0.1902,-0.1931,-0.1929,-0.1915,-0.1953,-0.1937,-0.194,-0.1951,-0.1957,-0.1961,-0.1959,-0.1899,0,0,0,0,0,-0.1799,-0.1814,-0.1834,-0.1845,-0.1853,-0.1864,-0.1875,-0.1883,-0.1898,-0.1903,-0.1915,-0.1925,-0.194,-0.1949,-0.1961,-0.198,-0.1965,-0.1992,-0.1996,-0.2,-0.2001,-0.1987,-0.1989,-0.1966,-0.1966,-0.1966,0,0,-0.1801,-0.1813,-0.1823,-0.1845,-0.1852,-0.1874,-0.187,-0.189,-0.1912,-0.1904,-0.1935,-0.1943,-0.1951,-0.1974,-0.1987,-0.1975,-0.2001,-0.2003,-0.2006,-0.2005,-0.1989,-0.1991,-0.1993,-0.1967,-0.1967,-0.1967,0,0,-0.1811,-0.1817,-0.1833,-0.1852,-0.1875,-0.1885,-0.1896,-0.1917,-0.1929,-0.1959,-0.196,-0.1978,-0.2002,-0.2009,-0.2015,-0.205,-0.2026,-0.2057,-0.2072,-0.2058,-0.2059,-0.206,-0.2049,-0.2049,-0.2055,-0.2055,-0.2055,0,-0.1807,-0.1827,-0.1843,-0.1863,-0.188,-0.1894,-0.1914,-0.1933,-0.1964,-0.1974,-0.1976,-0.2009,-0.2017,-0.2039,-0.2055,-0.2058,-0.2045,-0.2049,-0.2061,-0.2062,-0.2062,-0.2051,-0.205,-0.2056,-0.2056,-0.2056,-0.2056,0,-0.1831,-0.1848,-0.1858,-0.1887,-0.1911,-0.1929,-0.196,-0.1983,-0.1997,-0.2012,-0.2042,-0.2051,-0.2066,-0.2076,-0.2077,-0.2091,-0.208,-0.2068,-0.2043,-0.2066,-0.2053,-0.2052,-0.2058,-0.2058,-0.2057,-0.2057,0,0,-0.1803,-0.1862,-0.186,-0.188,-0.1922,-0.194,-0.1981,-0.2014,-0.2035,-0.2061,-0.2082,-0.2109,-0.2105,-0.2112,-0.2112,-0.2106,-0.2104,-0.2091,-0.209,-0.2072,-0.2073,-0.2031,-0.2026,-0.2088,-0.2088,-0.2088,-0.2064,0,-0.1805,-0.1842,-0.1875,-0.1914,-0.1936,-0.197,-0.2008,-0.2043,-0.2068,-0.2096,-0.2103,-0.2124,-0.2121,-0.2125,-0.212,-0.2112,-0.2101,-0.2112,-0.2062,-0.2061,-0.2013,-0.2023,-0.1881,-0.1844,-0.2062,-0.2062,-0.2062,0,-0.1799,-0.1832,-0.1866,-0.1926,-0.1937,-0.1969,-0.2016,-0.2053,-0.2097,-0.2115,-0.2131,-0.214,-0.215,-0.2137,-0.212,-0.2125,-0.2103,-0.2089,-0.2088,-0.2038,-0.2017,-0.1857,-0.1833,-0.206,-0.206,-0.206,-0.206,0,-0.1751,-0.1815,-0.1839,-0.1861,-0.1938,-0.1962,-0.1998,-0.2052,-0.208,-0.2121,-0.2138,-0.215,-0.2153,-0.2131,-0.2114,-0.2113,-0.2085,-0.2076,-0.2017,-0.2014,-0.1878,-0.1863,-0.2054,-0.2054,-0.2054,-0.2054,-0.2054,0,-0.1722,-0.1744,-0.1823,-0.1837,-0.1876,-0.194,-0.1975,-0.2016,-0.2072,-0.2098,-0.2137,-0.2149,-0.215,-0.214,-0.2115,-0.2063,-0.2081,-0.202,-0.2003,-0.1884,-0.1871,-0.2046,-0.2046,-0.2053,-0.2053,-0.2053,-0.2053,0,-0.1657,-0.1706,-0.1739,-0.182,-0.1851,-0.1871,-0.1955,-0.1978,-0.2045,-0.208,-0.2092,-0.2143,-0.2133,-0.2127,-0.2095,-0.2058,-0.2017,-0.1991,-0.1858,-0.1826,-0.1955,-0.1957,-0.1921,-0.1919,-0.1917,-0.1916,-0.1915,0,-0.1623,-0.1637,-0.1707,-0.1716,-0.1752,-0.1807,-0.1842,-0.194,-0.1972,-0.2066,-0.2072,-0.2101,-0.2098,-0.2051,-0.199,-0.1932,-0.1978,-0.1765,-0.174,-0.1954,-0.1941,-0.1945,-0.1948,-0.157,-0.1567,-0.1564,-0.1561,0,-0.1558,-0.1576,-0.1597,-0.1624,-0.1657,-0.1705,-0.1771,-0.1802,-0.1914,-0.1958,-0.2006,-0.202,-0.2003,-0.1884,-0.1823,-0.1766,-0.1766,-0.1701,-0.1939,-0.1635,-0.1624,-0.1612,-0.1626,-0.1534,-0.1536,-0.1538,-0.154,-0.1541,-0.1493,-0.1475,-0.149,-0.1513,-0.1548,-0.158,-0.1583,-0.167,-0.1719,-0.1772,-0.1866,-0.1845,-0.1831,-0.1671,-0.1577,-0.1497,-0.1618,-0.1531,-0.154,-0.1553,-0.1526,-0.1513,-0.1397,-0.1399,-0.1401,-0.1402,-0.1403,0,-0.1399,-0.1387,-0.1382,-0.1392,-0.1385,-0.1454,-0.1511,-0.15,-0.1523,-0.1605,-0.1639,-0.1497,-0.1429,-0.1414,-0.1259,-0.1223,-0.12,-0.1159,-0.113,-0.1159,-0.1184,-0.1137,-0.0906,-0.0904,-0.0903,-0.0901,0,0,-0.1343,-0.1296,-0.129,-0.1234,-0.1244,-0.1212,-0.1221,-0.1229,-0.1262,-0.1256,-0.1263,-0.1384,-0.1406,-0.117,-0.11,-0.0983,-0.1058,-0.093,-0.1333,-0.1329,-0.1352,-0.1405,-0.1367,0,0,0,0,0]},{"header":{"parameterUnit":"m.s-1","parameterCategory":2,"la1":30.2991,"la2":30.254,"lo1":-89.0895,"lo2":-89.0444,"dy":0.0017,"dx":0.0017,"nx":28,"ny":28,"refTime":"2026-02-16T03:00:00:Z","depth":"2","parameterNumber":3,"parameterNumberName":"V-component_of_CURRENTS"},"data":[0,0,0,0,0,0,0,0,0,0,0,0,0,0,0,0,0,0,0,0,0,0,0,0,0,0,0,0,0,0,0,0,0,0,0,0,0,0,0,0,0,0,0,0,0,0,0,0,0,0,0,0,0,0,0,0,0,0,-0.0282,-0.0281,0,-0.0229,-0.0228,-0.0228,-0.0179,-0.0179,-0.0178,-0.0177,-0.0003,0.0001,0.0005,0,0,0,0,0,0,0,0,0,0,0,0,0,-0.0281,-0.0281,-0.0282,-0.0281,-0.028,-0.0229,-0.0228,-0.0227,-0.018,-0.0179,-0.0178,-0.0177,-0.0004,0.0001,0.0005,0,0,0,0,0,0,0,0,0,0,0,0,0,-0.0261,-0.0282,-0.0282,-0.0249,-0.0246,-0.0229,-0.0228,-0.0227,-0.018,-0.0179,-0.0178,-0.0177,-0.0006,0.0,0.0006,0.0023,0,0,0.0025,0.0027,0,0,0,0,0,0,0,0,-0.0262,-0.0261,-0.0255,-0.0252,-0.0248,-0.0209,-0.0163,-0.0137,-0.018,-0.0206,-0.0177,-0.0176,-0.006,-0.005,-0.0045,0.0031,0.0039,0.0025,0.0029,0.0031,0.0033,0,0,0,0,0,0,0,-0.0264,-0.0263,-0.0262,-0.0254,-0.025,-0.0216,-0.0213,-0.0159,-0.0138,-0.0204,-0.02,-0.0192,-0.0057,-0.0052,-0.0041,0.0041,0.0025,0.003,0.0034,0.0036,0.0179,0.0179,0,0,0,0,0,0,-0.0273,-0.0265,-0.0264,-0.026,-0.0251,-0.0217,-0.0214,-0.0223,-0.0141,-0.0129,-0.0193,-0.019,-0.0062,-0.0048,-0.0034,0.0004,0.0031,0.0037,0.004,0.0179,0.0179,0.0179,0,0,0,0,0,0,-0.0273,-0.0274,-0.0266,-0.0259,-0.0255,-0.0219,-0.0229,-0.0223,-0.0209,-0.0135,-0.0119,-0.0186,-0.0061,-0.0042,0.001,0.0011,0.004,0.0045,0.0179,0.0179,0.0179,0.0073,0,0,0,0,0,0,-0.0274,-0.0275,-0.0282,-0.026,-0.0256,-0.0258,-0.023,-0.0222,-0.0206,-0.0201,-0.0123,-0.0107,-0.0059,0.0001,0.0016,0.002,0.005,0.0179,0.0179,0.0179,0.0076,0.0069,0.0063,0,0,0,0,0,-0.0274,-0.029,-0.0283,-0.0282,-0.0269,-0.0258,-0.0253,-0.0223,-0.0207,-0.0206,-0.0156,-0.0109,0.0015,0.0005,0.0023,0.0029,0.0178,0.0179,0.0179,0.0079,0.007,0.0064,0,0,0,0,0,0,-0.0292,-0.0286,-0.0278,-0.0291,-0.0276,-0.0249,-0.0245,-0.0226,-0.019,-0.018,-0.0111,-0.0092,-0.0045,0.0009,-0.0004,0.0073,0.0107,0.0111,0.0025,0.0018,0.0011,0.0008,0.0055,0,0,0,0,0,-0.0301,-0.031,-0.0297,-0.0304,-0.0302,-0.0275,-0.0265,-0.0247,-0.0213,-0.0197,-0.0144,-0.0082,-0.0032,0.0005,0.0057,0.0098,0.0148,0.0118,0.0111,0.0105,0.0116,0.0172,0.0171,0.0181,0.0181,0.0181,0,0,-0.0305,-0.0306,-0.0307,-0.0308,-0.0295,-0.0298,-0.0267,-0.0258,-0.0251,-0.0181,-0.0152,-0.0103,-0.0027,0.0012,0.004,0.006,0.0126,0.0106,0.01,0.0115,0.0172,0.0171,0.017,0.0181,0.0181,0.0181,0,0,-0.0324,-0.0326,-0.0341,-0.0337,-0.0326,-0.0311,-0.0311,-0.0287,-0.0268,-0.0239,-0.0189,-0.0143,-0.0063,-0.0016,0.0021,0.0018,0.0086,0.0039,0.0012,0.0064,0.0063,0.0063,0.0106,0.0111,0.0042,0.0041,0.0041,0,-0.0333,-0.0354,-0.034,-0.0357,-0.0355,-0.0321,-0.0335,-0.0314,-0.0273,-0.0253,-0.0236,-0.013,-0.0075,-0.002,-0.0027,0.0003,0.0042,0.0026,0.0053,0.0055,0.0057,0.0101,0.0108,0.0036,0.0037,0.0037,0.0038,0,-0.0366,-0.038,-0.0389,-0.0401,-0.0396,-0.0402,-0.0377,-0.0362,-0.0333,-0.0303,-0.0249,-0.0185,-0.0116,-0.0098,-0.0063,-0.002,0.0005,0.0029,0.0064,0.0049,0.0097,0.0106,0.0029,0.0031,0.0032,0.0034,0,0,-0.0406,-0.0412,-0.0418,-0.0428,-0.0423,-0.0424,-0.0412,-0.039,-0.0376,-0.0328,-0.03,-0.0227,-0.0187,-0.0142,-0.0092,-0.0048,-0.0017,-0.0009,-0.0004,0.0019,0.0093,0.0109,0.012,0.0007,0.0008,0.0009,0.0114,0,-0.0441,-0.0477,-0.0468,-0.0494,-0.051,-0.048,-0.0472,-0.0441,-0.0403,-0.0367,-0.0292,-0.0246,-0.0204,-0.0177,-0.0127,-0.0042,0.0005,-0.0047,0.012,0.0125,0.0128,0.0131,0.0105,0.0196,0.0123,0.0125,0.0126,0,-0.0489,-0.0504,-0.0537,-0.0541,-0.0546,-0.0551,-0.0531,-0.0518,-0.0454,-0.0421,-0.0358,-0.0297,-0.022,-0.0189,-0.0046,-0.0082,0.0001,0.0065,0.0071,0.0135,0.0158,0.0207,0.0216,0.0142,0.014,0.0139,0.0138,0,-0.0536,-0.0558,-0.0583,-0.0588,-0.0584,-0.0586,-0.0578,-0.0532,-0.0521,-0.0451,-0.0429,-0.0326,-0.0272,-0.016,-0.0027,-0.0033,0.0129,0.0141,0.0236,0.0238,0.0277,0.028,0.0248,0.0248,0.0248,0.0247,0.0247,0,-0.0593,-0.0615,-0.0606,-0.0626,-0.0652,-0.0628,-0.0639,-0.0613,-0.0569,-0.0552,-0.046,-0.0421,-0.0261,-0.0151,-0.0034,0.0129,0.0131,0.0241,0.0271,0.0238,0.0236,0.0243,0.0241,0.0251,0.025,0.025,0.0249,0,-0.0652,-0.0645,-0.0679,-0.0679,-0.068,-0.0701,-0.0697,-0.0699,-0.0645,-0.062,-0.0601,-0.0481,-0.0333,-0.0171,0.0021,0.0121,0.0271,0.033,0.0274,0.0296,0.0346,0.0337,0.0447,0.0449,0.045,0.0451,0.0452,0,-0.0688,-0.0707,-0.0727,-0.0753,-0.0759,-0.0775,-0.0788,-0.0748,-0.0744,-0.0658,-0.065,-0.0503,-0.0392,-0.0109,0.0094,0.0313,0.0317,0.0411,0.04,0.035,0.0369,0.0358,0.0348,0.0405,0.0406,0.0406,0.0407,0,-0.0751,-0.0753,-0.0779,-0.0829,-0.0857,-0.0885,-0.0891,-0.0897,-0.0838,-0.0796,-0.0714,-0.0615,-0.0335,-0.01,0.0184,0.0308,0.0371,0.0425,0.0408,0.035,0.0317,0.0333,0.0324,0.041,0.041,0.0409,0.0409,0.0409,-0.0793,-0.0826,-0.0853,-0.0903,-0.0946,-0.0982,-0.1001,-0.0986,-0.0966,-0.0879,-0.0776,-0.0601,-0.0359,0.004,0.0241,0.0431,0.0431,0.0481,0.0477,0.0474,0.0442,0.0412,0.0516,0.0517,0.0517,0.0517,0.0517,0,-0.0828,-0.0862,-0.0921,-0.0977,-0.1038,-0.1038,-0.1061,-0.1055,-0.1027,-0.0906,-0.0793,-0.0523,-0.0239,0.0017,0.032,0.0498,0.0485,0.0524,0.0473,0.0469,0.0466,0.0431,0.0504,0.0504,0.0505,0.0505,0,0,-0.0846,-0.0899,-0.0926,-0.1032,-0.108,-0.1135,-0.1147,-0.1118,-0.1038,-0.0915,-0.0765,-0.0558,-0.0239,-0.0031,0.02,0.036,0.0365,0.0374,0.0367,0.0275,0.027,0.0425,0.0366,0,0,0,0,0]}],[{"header":{"parameterUnit":"m.s-1","parameterCategory":2,"la1":30.2991,"la2":30.254,"lo1":-89.0895,"lo2":-89.0444,"dy":0.0017,"dx":0.0017,"nx":28,"ny":28,"refTime":"2026-02-16T03:00:00:Z","depth":"4","parameterNumber":2,"parameterNumberName":"U-component_of_CURRENTS"},"data":[0,0,0,0,0,0,0,0,0,0,0,0,0,0,0,0,0,0,0,0,0,0,0,0,0,0,0,0,0,0,0,0,0,0,0,0,0,0,0,0,0,0,0,0,0,0,0,0,0,0,0,0,0,0,0,0,0,0,-0.1163,-0.1164,0,-0.1222,-0.1223,-0.1223,-0.1286,-0.1287,-0.1288,-0.1289,-0.1382,-0.1384,-0.1386,0,0,0,0,0,0,0,0,0,0,0,0,0,-0.1121,-0.1121,-0.1163,-0.1164,-0.1164,-0.1222,-0.1223,-0.1224,-0.1286,-0.1287,-0.1289,-0.129,-0.1382,-0.1384,-0.1386,0,0,0,0,0,0,0,0,0,0,0,0,0,-0.1155,-0.1121,-0.1163,-0.1203,-0.1207,-0.1222,-0.1223,-0.1224,-0.1286,-0.1287,-0.1289,-0.129,-0.1381,-0.1384,-0.1386,-0.1372,0,0,-0.1393,-0.1394,0,0,0,0,0,0,0,0,-0.1153,-0.1156,-0.1196,-0.12,-0.1205,-0.1249,-0.1242,-0.1275,-0.1286,-0.1255,-0.1289,-0.1291,-0.134,-0.1346,-0.1353,-0.1377,-0.1381,-0.1394,-0.1395,-0.1396,-0.1397,0,0,0,0,0,0,0,-0.115,-0.1154,-0.1186,-0.1197,-0.1202,-0.1224,-0.123,-0.1249,-0.1289,-0.1258,-0.1263,-0.127,-0.1343,-0.135,-0.1355,-0.1382,-0.1393,-0.1396,-0.1397,-0.1398,-0.15,-0.1501,0,0,0,0,0,0,-0.1142,-0.1151,-0.1184,-0.1188,-0.1183,-0.1224,-0.1231,-0.1233,-0.1289,-0.1298,-0.1269,-0.1273,-0.1345,-0.1353,-0.1359,-0.1435,-0.1396,-0.1398,-0.14,-0.1499,-0.15,-0.1502,0,0,0,0,0,0,-0.114,-0.1144,-0.1181,-0.1172,-0.1178,-0.1223,-0.1225,-0.1233,-0.1265,-0.1296,-0.1307,-0.1295,-0.1347,-0.1356,-0.1411,-0.1436,-0.1399,-0.1401,-0.1497,-0.1499,-0.1501,-0.1531,0,0,0,0,0,0,-0.1139,-0.1143,-0.1148,-0.1171,-0.1179,-0.1209,-0.1224,-0.1233,-0.1266,-0.1273,-0.1322,-0.1331,-0.1349,-0.1408,-0.1413,-0.1439,-0.1403,-0.1496,-0.1498,-0.1501,-0.1528,-0.1534,-0.1538,0,0,0,0,0,-0.1137,-0.1139,-0.1148,-0.1152,-0.1182,-0.121,-0.1217,-0.1252,-0.1266,-0.1285,-0.1327,-0.133,-0.1427,-0.1411,-0.1417,-0.1444,-0.1495,-0.1498,-0.15,-0.1526,-0.1533,-0.1538,0,0,0,0,0,0,-0.112,-0.1147,-0.1156,-0.1166,-0.1194,-0.1222,-0.1242,-0.126,-0.1305,-0.132,-0.1347,-0.1359,-0.1418,-0.1425,-0.1406,-0.1481,-0.146,-0.1465,-0.1478,-0.1484,-0.1489,-0.1487,-0.1405,0,0,0,0,0,-0.1117,-0.1132,-0.1157,-0.1168,-0.1182,-0.1212,-0.123,-0.1256,-0.1293,-0.1315,-0.1349,-0.1388,-0.1428,-0.1453,-0.1486,-0.1522,-0.1516,-0.1543,-0.1548,-0.1552,-0.1556,-0.1567,-0.1573,-0.1511,-0.1511,-0.1511,0,0,-0.1114,-0.1131,-0.114,-0.1167,-0.1191,-0.1222,-0.1228,-0.1264,-0.13,-0.1316,-0.1381,-0.1409,-0.1443,-0.1495,-0.152,-0.1508,-0.1567,-0.1556,-0.1559,-0.1561,-0.1571,-0.1577,-0.1582,-0.1513,-0.1513,-0.1513,0,0,-0.1121,-0.1131,-0.1151,-0.1178,-0.1218,-0.1238,-0.1252,-0.1292,-0.1324,-0.1378,-0.1405,-0.1451,-0.1505,-0.1538,-0.156,-0.1608,-0.1594,-0.1617,-0.164,-0.1651,-0.1656,-0.166,-0.1656,-0.1659,-0.1617,-0.1617,-0.1617,0,-0.1119,-0.1144,-0.1162,-0.1192,-0.122,-0.1249,-0.1283,-0.1314,-0.1372,-0.1398,-0.1409,-0.15,-0.1527,-0.159,-0.1612,-0.1619,-0.1615,-0.1613,-0.1656,-0.166,-0.1664,-0.1659,-0.1662,-0.1619,-0.1619,-0.1619,-0.1618,0,-0.1138,-0.1171,-0.1186,-0.1235,-0.1266,-0.13,-0.1343,-0.1381,-0.1417,-0.1448,-0.1519,-0.1557,-0.1609,-0.1625,-0.1637,-0.1682,-0.1667,-0.1661,-0.1637,-0.1671,-0.1664,-0.1667,-0.1621,-0.1621,-0.162,-0.162,0,0,-0.1105,-0.1185,-0.1194,-0.1229,-0.1294,-0.1318,-0.138,-0.1436,-0.1478,-0.1529,-0.1582,-0.1649,-0.1661,-0.1687,-0.1704,-0.1715,-0.1738,-0.17,-0.17,-0.1688,-0.1751,-0.1638,-0.1631,-0.1735,-0.1736,-0.1737,-0.1733,0,-0.112,-0.1178,-0.122,-0.1288,-0.1322,-0.1375,-0.143,-0.1486,-0.1533,-0.1589,-0.1629,-0.1688,-0.1687,-0.1717,-0.173,-0.1741,-0.1748,-0.1739,-0.1726,-0.1725,-0.1615,-0.1631,-0.1739,-0.1735,-0.1736,-0.1736,-0.1736,0,-0.1121,-0.1165,-0.1227,-0.1319,-0.134,-0.1388,-0.1471,-0.1525,-0.1604,-0.1642,-0.1696,-0.1727,-0.1773,-0.1759,-0.1786,-0.1778,-0.177,-0.1766,-0.1765,-0.1651,-0.1618,-0.1695,-0.1742,-0.1741,-0.1741,-0.1741,-0.174,0,-0.1074,-0.1169,-0.1218,-0.1249,-0.1353,-0.1398,-0.1456,-0.154,-0.1589,-0.1674,-0.1711,-0.1767,-0.1799,-0.1803,-0.18,-0.1797,-0.1807,-0.18,-0.169,-0.1682,-0.1771,-0.1767,-0.1811,-0.1811,-0.1811,-0.1811,-0.1811,0,-0.1058,-0.1104,-0.1205,-0.1231,-0.1295,-0.1381,-0.1455,-0.1517,-0.1612,-0.1661,-0.1733,-0.1766,-0.1811,-0.1822,-0.181,-0.175,-0.1815,-0.1692,-0.1673,-0.1784,-0.1781,-0.1773,-0.1768,-0.1811,-0.1811,-0.1811,-0.1811,0,-0.0996,-0.1065,-0.1126,-0.1238,-0.1274,-0.1316,-0.1441,-0.1487,-0.1591,-0.1656,-0.1685,-0.1769,-0.178,-0.1803,-0.1808,-0.1749,-0.1715,-0.1679,-0.1792,-0.178,-0.1581,-0.1578,-0.1552,-0.1548,-0.1544,-0.1542,-0.1539,0,-0.0971,-0.0996,-0.1101,-0.113,-0.1184,-0.1267,-0.1317,-0.1449,-0.1496,-0.1637,-0.1648,-0.1713,-0.1748,-0.1664,-0.1697,-0.1659,-0.1641,-0.1608,-0.1597,-0.1569,-0.1555,-0.1558,-0.156,-0.1534,-0.1533,-0.1532,-0.1531,0,-0.092,-0.0958,-0.1001,-0.1052,-0.1108,-0.1167,-0.1255,-0.1282,-0.1427,-0.1538,-0.1574,-0.1586,-0.1596,-0.1589,-0.1569,-0.1543,-0.162,-0.1573,-0.158,-0.1569,-0.1547,-0.1537,-0.1543,-0.1519,-0.1521,-0.1522,-0.1523,0,-0.0876,-0.0881,-0.0929,-0.0965,-0.1022,-0.1046,-0.1111,-0.1178,-0.1249,-0.1419,-0.1422,-0.1499,-0.1583,-0.1528,-0.1509,-0.1473,-0.1451,-0.1397,-0.1413,-0.1427,-0.1385,-0.1339,-0.1227,0,0,0,0,0,-0.0833,-0.0823,-0.0842,-0.0875,-0.0921,-0.0956,-0.1057,-0.113,-0.1274,-0.1262,-0.1349,-0.1359,-0.1356,-0.139,-0.1324,-0.143,-0.1439,-0.1345,-0.1382,-0.1454,-0.1468,-0.1429,0,0,0,0,0,0,-0.0802,-0.0815,-0.0809,-0.0785,-0.0789,-0.0836,-0.0893,-0.0991,-0.1002,-0.1151,-0.1153,-0.1266,-0.1273,-0.1372,-0.1294,-0.1301,-0.1293,-0.1399,-0.1395,-0.1446,-0.1459,-0.147,-0.1434,0,0,0,0,0]},{"header":{"parameterUnit":"m.s-1","parameterCategory":2,"la1":30.2991,"la2":30.254,"lo1":-89.0895,"lo2":-89.0444,"dy":0.0017,"dx":0.0017,"nx":28,"ny":28,"refTime":"2026-02-16T03:00:00:Z","depth":"4","parameterNumber":3,"parameterNumberName":"V-component_of_CURRENTS"},"data":[0,0,0,0,0,0,0,0,0,0,0,0,0,0,0,0,0,0,0,0,0,0,0,0,0,0,0,0,0,0,0,0,0,0,0,0,0,0,0,0,0,0,0,0,0,0,0,0,0,0,0,0,0,0,0,0,0,0,-0.0303,-0.0302,0,-0.0269,-0.0269,-0.0268,-0.0224,-0.0223,-0.0222,-0.0222,-0.0079,-0.0076,-0.0073,0,0,0,0,0,0,0,0,0,0,0,0,0,-0.028,-0.0281,-0.0303,-0.0302,-0.0302,-0.0269,-0.0269,-0.0268,-0.0224,-0.0223,-0.0222,-0.0222,-0.008,-0.0077,-0.0073,0,0,0,0,0,0,0,0,0,0,0,0,0,-0.0272,-0.0281,-0.0303,-0.0277,-0.0274,-0.0269,-0.0269,-0.0268,-0.0224,-0.0223,-0.0222,-0.0221,-0.0082,-0.0077,-0.0072,-0.0063,0,0,-0.0058,-0.0056,0,0,0,0,0,0,0,0,-0.0273,-0.0273,-0.0281,-0.0278,-0.0276,-0.025,-0.0208,-0.0194,-0.0224,-0.0242,-0.0222,-0.0221,-0.0128,-0.0119,-0.0115,-0.0056,-0.005,-0.0057,-0.0054,-0.0052,-0.0051,0,0,0,0,0,0,0,-0.0273,-0.0274,-0.0289,-0.0281,-0.0277,-0.025,-0.0248,-0.0206,-0.0188,-0.0241,-0.0237,-0.0235,-0.0125,-0.012,-0.0111,-0.0048,-0.0057,-0.0053,-0.005,-0.0048,0.0057,0.0057,0,0,0,0,0,0,-0.0283,-0.0275,-0.029,-0.0288,-0.0272,-0.0251,-0.0249,-0.0259,-0.0191,-0.0181,-0.0236,-0.0233,-0.0129,-0.0117,-0.0106,-0.0077,-0.0052,-0.0048,-0.0045,0.0057,0.0057,0.0057,0,0,0,0,0,0,-0.0283,-0.0285,-0.0291,-0.028,-0.0279,-0.0253,-0.0264,-0.0259,-0.0254,-0.0189,-0.0176,-0.0237,-0.0128,-0.0113,-0.0073,-0.0072,-0.0046,-0.0041,0.0057,0.0057,0.0057,-0.0028,0,0,0,0,0,0,-0.0283,-0.0286,-0.0297,-0.0281,-0.028,-0.0289,-0.0265,-0.0259,-0.0254,-0.025,-0.0185,-0.0171,-0.0126,-0.008,-0.0068,-0.0065,-0.0038,0.0057,0.0057,0.0057,-0.0025,-0.0031,-0.0036,0,0,0,0,0,-0.0282,-0.0297,-0.0299,-0.03,-0.0297,-0.0289,-0.0286,-0.0263,-0.0256,-0.0255,-0.0215,-0.0173,-0.0072,-0.0077,-0.0062,-0.0058,0.0057,0.0057,0.0057,-0.0022,-0.0029,-0.0035,0,0,0,0,0,0,-0.0294,-0.0293,-0.0295,-0.031,-0.0303,-0.0282,-0.028,-0.0272,-0.0244,-0.0236,-0.0179,-0.0162,-0.0125,-0.0082,-0.0089,-0.0027,0.0002,0.0004,-0.0063,-0.0069,-0.0075,-0.0075,-0.0034,0,0,0,0,0,-0.0306,-0.0315,-0.031,-0.0322,-0.0321,-0.0306,-0.0302,-0.029,-0.0263,-0.0251,-0.0209,-0.0159,-0.0116,-0.0087,-0.0042,-0.0011,0.0034,0.0004,-0.0002,-0.0007,0.0004,0.0061,0.0061,0.0056,0.0056,0.0056,0,0,-0.0314,-0.0315,-0.032,-0.0325,-0.0318,-0.032,-0.03,-0.0297,-0.0295,-0.0238,-0.0218,-0.0179,-0.0114,-0.008,-0.0058,-0.0042,0.0015,-0.0007,-0.0012,0.0002,0.0061,0.0061,0.0062,0.0056,0.0056,0.0056,0,0,-0.0328,-0.0337,-0.0347,-0.0346,-0.0342,-0.0332,-0.0336,-0.0322,-0.031,-0.0293,-0.025,-0.0215,-0.0151,-0.0107,-0.0076,-0.0083,-0.002,-0.0066,-0.0087,-0.0034,-0.0033,-0.0031,0.0005,0.0011,-0.0064,-0.0065,-0.0065,0,-0.0337,-0.0354,-0.0347,-0.0355,-0.0358,-0.0342,-0.0352,-0.034,-0.0314,-0.0302,-0.0291,-0.0207,-0.0162,-0.0112,-0.0116,-0.0094,-0.0057,-0.0073,-0.0042,-0.0039,-0.0036,0.0002,0.0009,-0.0069,-0.0068,-0.0068,-0.0067,0,-0.0355,-0.0371,-0.0376,-0.0384,-0.0384,-0.039,-0.0378,-0.0373,-0.0361,-0.0342,-0.0301,-0.0248,-0.0192,-0.0178,-0.0148,-0.0105,-0.0085,-0.0062,-0.003,-0.0041,-0.0,0.0008,-0.0075,-0.0073,-0.0072,-0.0071,0,0,-0.0375,-0.0387,-0.0391,-0.0404,-0.0403,-0.0407,-0.0403,-0.0393,-0.0387,-0.0355,-0.0337,-0.0276,-0.0247,-0.0208,-0.0167,-0.0123,-0.0087,-0.0088,-0.0083,-0.006,0.0024,0.0006,0.0014,-0.0059,-0.0057,-0.0056,0.0036,0,-0.0394,-0.042,-0.0418,-0.0443,-0.0456,-0.0444,-0.0443,-0.0429,-0.0407,-0.0383,-0.0325,-0.0289,-0.0257,-0.0235,-0.0186,-0.0109,-0.0063,-0.0114,0.004,0.0044,0.0023,0.0024,-0.0051,0.0043,0.0045,0.0046,0.0047,0,-0.0417,-0.0431,-0.0461,-0.0478,-0.0483,-0.0494,-0.0492,-0.0487,-0.0444,-0.0423,-0.0373,-0.0325,-0.0259,-0.0233,-0.0101,-0.0134,-0.0059,-0.0,0.0005,0.003,0.0044,0.0065,0.0064,0.0063,0.0062,0.0061,0.006,0,-0.044,-0.0465,-0.0492,-0.0499,-0.0511,-0.0522,-0.0525,-0.0499,-0.0496,-0.0445,-0.0429,-0.034,-0.0296,-0.019,-0.0078,-0.0082,0.0068,0.0079,0.0136,0.0135,0.0161,0.0159,0.0182,0.0182,0.0182,0.0182,0.0181,0,-0.0464,-0.0489,-0.0509,-0.0526,-0.056,-0.0553,-0.0574,-0.056,-0.0533,-0.0523,-0.0451,-0.0418,-0.0281,-0.0184,-0.0079,0.0051,0.0072,0.0139,0.0163,0.012,0.0113,0.0166,0.0163,0.0185,0.0184,0.0184,0.0183,0,-0.0487,-0.05,-0.0538,-0.0563,-0.0576,-0.0602,-0.0623,-0.063,-0.0596,-0.0579,-0.0564,-0.0466,-0.0339,-0.0203,-0.0029,0.0043,0.0171,0.0216,0.015,0.0168,0.0203,0.0194,0.0287,0.0287,0.0287,0.0288,0.0288,0,-0.0499,-0.0519,-0.0573,-0.0606,-0.0624,-0.0658,-0.0681,-0.0667,-0.0667,-0.0607,-0.0597,-0.0479,-0.0399,-0.017,-0.003,0.0168,0.0197,0.0255,0.0239,0.0202,0.0217,0.0208,0.0199,0.0288,0.0288,0.0288,0.0288,0,-0.0519,-0.0543,-0.0575,-0.0642,-0.0686,-0.0728,-0.0753,-0.0756,-0.0725,-0.0699,-0.061,-0.0488,-0.0345,-0.0173,-0.0018,0.0123,0.0209,0.0257,0.0258,0.0244,0.0204,0.0217,0.0208,0.0289,0.0289,0.0289,0.0289,0,-0.0533,-0.0565,-0.0612,-0.0668,-0.0731,-0.0773,-0.0786,-0.0771,-0.076,-0.0682,-0.0654,-0.0493,-0.0396,-0.0196,-0.0055,0.0081,0.0114,0.0148,0.0155,0.0156,0.0085,0.0014,0.0067,0,0,0,0,0,-0.0539,-0.0572,-0.0631,-0.0692,-0.0757,-0.0789,-0.0821,-0.0819,-0.0788,-0.073,-0.0686,-0.0548,-0.0329,-0.0235,-0.01,-0.006,0.0126,0.01,0.0166,0.0293,0.0292,0.023,0,0,0,0,0,0,-0.0544,-0.0597,-0.0625,-0.0697,-0.0742,-0.0804,-0.0828,-0.0812,-0.0769,-0.072,-0.0601,-0.0526,-0.0313,-0.0399,-0.0098,-0.0058,-0.0002,0.0208,0.0211,0.0294,0.0293,0.0292,0.0228,0,0,0,0,0]}]]